This demonstration page uses our WeatherBlox Daily Observations layout. Learn more.

Left ArrowRight Arrow

41.86663, -103.66717

Hourly Observations for November 9, 2019

Temp ( °F °C ) Dew Point ( °F °C ) Humidity (%) Winds ( mph kmh ) Pressure ( in mb ) Visibility ( mi km ) Precip ( " mm )
12:53 am 00:53 Clear 32 0 25 -3.9 75 75 N 7 11 30.13 1020 10 16 0.00 0.00
1:53 am 01:53 Clear 33 0.6 24 -4.4 70 70 NNW 5 7 30.10 1019 10 16 0.00 0.00
2:53 am 02:53 Clear 27 -2.8 24 -4.4 89 89 NW 3 6 30.10 1019 10 16 0.00 0.00
3:53 am 03:53 Clear 29 -1.7 23 -5 78 78 Calm 30.08 1019 10 16 0.00 0.00
4:53 am 04:53 Clear 30 -1.1 24 -4.4 79 79 Calm 30.11 1020 10 16 0.00 0.00
5:53 am 05:53 Clear 32 0 23 -5 69 69 E 3 6 30.09 1019 10 16 0.00 0.00
6:53 am 06:53 Sunny 32 0 23 -5 69 69 E 3 6 30.09 1019 10 16 0.00 0.00
7:53 am 07:53 Sunny 42 5.6 30 -1.1 62 62 ESE 3 6 30.07 1018 10 16 0.00 0.00
8:53 am 08:53 Sunny 53 11.7 28 -2.2 38 38 Calm 30.03 1017 10 16 0.00 0.00
9:53 am 09:53 Sunny 63 17.2 24 -4.4 23 23 W 13 20 30.02 1017 10 16 0.00 0.00
10:53 am 10:53 Sunny 68 20 20 -6.7 16 16 W 21 33 29.98 1015 10 16 0.00 0.00
11:53 am 11:53 Sunny 72 22.2 18 -7.8 13 13 WNW 24 39 29.96 1015 10 16 0.00 0.00
12:53 pm 12:53 Sunny 73 22.8 19 -7.2 13 13 WNW 20 31 29.95 1014 10 16 0.00 0.00
1:53 pm 13:53 Sunny 74 23.3 19 -7.2 12 12 NW 16 26 29.94 1014 10 16 0.00 0.00
2:53 pm 14:53 Sunny 73 22.8 18 -7.8 12 12 NW 12 19 29.95 1014 10 16 0.00 0.00
3:53 pm 15:53 Sunny 69 20.6 21 -6.1 16 16 NW 6 9 29.96 1015 10 16 0.00 0.00
4:53 pm 16:53 Clear 61 16.1 21 -6.1 21 21 WNW 5 7 29.99 1016 10 16 0.00 0.00
5:53 pm 17:53 Clear 53 11.7 21 -6.1 28 28 ENE 5 7 30.02 1017 10 16 0.00 0.00
6:53 pm 18:53 Clear 51 10.6 22 -5.6 32 32 Calm 30.04 1017 10 16 0.00 0.00
7:53 pm 19:53 Clear 43 6.1 23 -5 45 45 VRB 3 6 30.05 1018 10 16 0.00 0.00
8:53 pm 20:53 Clear 36 2.2 23 -5 59 59 ENE 8 13 30.05 1018 10 16 0.00 0.00
9:53 pm 21:53 Clear 39 3.9 24 -4.4 55 55 NNE 7 11 30.04 1017 10 16 0.00 0.00
10:53 pm 22:53 Clear 37 2.8 24 -4.4 59 59 ESE 3 6 30.00 1016 10 16 0.00 0.00
11:53 pm 23:53 Clear 32 0 23 -5 69 69 Calm 30.01 1016 10 16 0.00 0.00

Powered by AerisWeather